Lid_Strength_Index
-1 -1 -1 2 9 8 11 10 7 8 7 5 5 6 7 6 8 10 1 -0 -1 -1 -1 -1 -2 -1 -1 -1 -1 -1 -1 -1 -1 -2 -1 -1 -1 -1 -1 -1 -2 -2 -2 -2 -1 -2 -2 -2 -2
-1 0 1 5 10 11 11 8 9 7 5 4 5 5 6 7 3 3 2 -1 -1 -1 -1 -1 -1 -2 -1 -1 -1 -1 -1 -1 -1 -1 -1 -1 -1 -2 -1 -1 -2 -2 -1 -1 -2 -2 -2 -2 -2
-0 0 6 7 9 12 11 8 7 6 5 5 6 4 5 6 3 2 0 -1 -1 -1 -1 -2 -1 -1 -1 -1 -1 -1 -1 -1 -1 -1 -2 -2 -2 -2 -2 -2 -2 -2 -2 -2 -2 -2 -2 -2 -2
2 3 4 9 10 9 8 7 6 6 5 4 4 7 4 1 2 1 -1 -1 -1 -1 -1 -2 -1 -1 -1 -1 -1 -1 -1 -2 -2 -2 -2 -2 -1 -1 -2 -2 -1 -1 -2 -2 -2 -2 -2 -2 -1
2 4 8 9 10 8 6 6 5 6 6 5 4 6 5 2 0 -0 -0 -1 -0 -1 -1 -1 -1 -2 -1 -1 -1 -1 -1 -1 -1 -2 -2 -2 -2 -2 -1 -2 -2 -2 -1 -2 -1 -1 -1 -1 -1
6 5 9 11 10 8 6 5 5 6 5 5 5 6 5 1 1 0 -0 -0 -1 -1 -1 -1 -1 -1 -1 -1 -1 -1 -2 -2 -1 -1 -1 -2 -1 -1 -2 -2 -1 -2 -1 -1 -1 -1 -1 -1 -1
6 6 9 9 9 9 7 5 6 6 6 5 4 6 4 2 1 -0 -0 -1 -1 -1 -1 -1 -1 -1 -1 -1 -1 -1 -2 -1 -1 -1 -1 -1 -1 -2 -1 -1 -1 -1 -1 -1 -1 -1 -1 -1 -2
4 5 9 8 9 10 6 5 4 5 6 3 3 6 6 2 0 -0 -0 -0 -0 -1 -1 -1 -1 -2 -2 -2 -1 -1 -1 -1 -1 -2 -2 -1 -1 -2 -2 -2 -1 -2 -2 -1 -1 -1 -1 -1 -2
3 7 9 9 9 8 5 6 4 3 4 4 3 3 2 1 0 1 1 1 0 -0 -1 -1 -1 -1 -2 -2 -1 -2 -1 -1 -1 -2 -1 -1 -2 -2 -2 -2 -1 -1 -1 -1 -1 -1 -1 -1 -1
5 7 8 6 6 7 5 6 5 5 5 5 4 3 2 1 1 2 2 2 1 1 0 -1 -1 -1 -1 -1 -2 -2 -2 -2 -2 -2 -2 -2 -2 -2 -2 -1 -1 -1 -1 -1 -1 -1 -1 -2 -1
5 8 6 6 5 5 6 5 4 5 7 5 5 4 3 2 2 2 2 1 1 1 -0 -1 -1 -1 -1 -1 -1 -2 -2 -2 -2 -2 -2 -2 -2 -2 -2 -2 -2 -2 -1 -1 -1 -1 -2 -1 -2
7 5 5 5 5 5 6 5 5 5 5 3 3 3 2 3 2 2 2 1 1 1 0 -0 -1 -1 -1 -1 -1 -1 -1 -2 -1 -1 -2 -2 -1 -2 -2 -2 -2 -2 -1 -2 -2 -2 -2 -1 -1
6 6 5 4 5 5 4 6 5 5 3 2 2 3 3 3 2 2 1 1 1 1 0 -0 -1 -1 -1 -1 -1 -1 -2 -1 -1 -1 -2 -2 -2 -2 -2 -2 -2 -2 -2 -1 -1 -2 -1 -1 -1
5 5 5 5 5 5 6 6 5 5 3 3 3 3 3 3 2 2 2 1 1 0 0 -0 -1 -1 -1 -1 -1 -1 -2 -2 -2 -1 -2 -2 -2 -2 -2 -2 -1 -2 -2 -2 -2 -1 -1 -1 -1
5 7 6 6 5 6 5 7 7 4 3 4 4 3 3 3 2 2 1 1 1 0 -0 -0 -1 -1 -1 -1 -1 -1 -1 -1 -1 -1 -2 -2 -2 -2 -2 -1 -1 -2 -2 -2 -2 -1 -1 -1 -1
6 6 8 6 6 5 6 10 6 4 4 5 4 4 3 3 2 2 1 1 0 0 -0 -1 -1 -1 -1 -1 -1 -1 -1 -2 -1 -2 -2 -2 -2 -2 -2 -1 -1 -2 -1 -1 -2 -1 -1 -0 0
7 9 8 8 5 6 6 8 6 4 4 5 4 4 3 3 2 1 1 1 0 -0 -0 -0 -1 -1 -1 -1 -1 -1 -2 -1 -1 -1 -1 -2 -2 -2 -3 -2 -1 -2 -1 -1 -1 -1 -1 -1 -0
8 8 8 8 7 6 7 7 6 5 4 5 4 4 3 3 3 2 1 1 0 -0 -0 -0 -0 -1 -1 -1 -1 -1 -1 -1 -1 -1 -1 -2 -1 -2 -1 -1 -1 -2 -1 -1 -0 -1 -1 -1 -0
6 7 8 7 6 7 7 7 6 5 5 5 4 4 4 3 2 1 1 1 0 0 0 0 0 -1 -0 0 0 0 1 -0 -1 -1 -2 -2 -2 -2 -2 -1 -1 -1 -0 -1 -1 -0 -0 0 -1
6 7 7 7 6 7 7 7 6 5 5 5 5 4 4 3 2 2 1 1 1 1 0 0 0 -0 -0 -0 -0 -0 -0 -0 -1 -1 -2 -2 -2 -2 -1 -2 -1 -1 -1 -1 -1 -0 1 0 -1
6 7 7 7 7 6 7 7 7 5 5 4 4 4 3 3 3 2 2 1 1 1 1 0 -0 -0 -0 -1 -0 -0 -0 -0 0 -0 -0 -1 -2 -2 -2 -2 -2 -1 -1 0 -1 -0 0 1 0
7 6 6 7 8 9 7 10 7 6 6 5 5 4 4 3 3 2 2 2 1 1 0 0 -0 -0 -0 -1 -0 -0 1 1 0 -0 -1 -1 -2 -1 -1 -2 -1 -1 -1 -1 -0 -1 -0 0 1
7 6 6 7 7 7 8 9 7 6 7 6 5 4 4 3 3 3 2 1 1 1 1 0 -0 -0 -0 -1 -0 0 1 0 -0 -0 -1 -1 -1 -1 -1 -2 -1 -1 -1 -1 -1 -1 -0 -1 0
5 6 6 6 7 10 8 8 8 7 6 5 4 4 4 3 3 2 2 1 1 1 0 0 0 0 -0 -0 -0 -0 0 0 1 0 0 0 -0 -1 -1 -1 -1 -1 -1 -1 -1 -1 -1 -1 -0
6 7 10 10 10 10 7 8 7 5 5 5 4 4 3 3 3 2 2 2 1 1 1 1 0 1 0 0 0 -0 0 -0 0 0 0 0 0 0 -1 -1 -1 -1 -1 -1 -1 -1 -1 -0 -0
6 7 9 12 11 9 8 9 7 5 4 4 4 4 3 3 2 2 2 2 1 1 1 1 1 1 0 0 0 -0 -0 0 0 -0 0 0 0 -0 -1 -1 -1 -1 -1 -1 -1 -0 -0 -1 0
7 8 6 8 8 10 8 7 6 5 5 4 4 4 3 3 3 3 2 2 2 1 1 1 1 1 1 0 0 0 -0 -0 -0 -1 -0 -0 -1 -0 -1 -1 -1 -1 -1 -1 -1 -0 -0 -0 -0
6 5 8 8 11 12 9 9 7 6 6 5 5 4 3 3 3 2 2 2 1 1 1 1 0 1 0 0 0 0 -0 -0 -0 -0 -0 -0 -0 -1 -1 -1 -1 -1 -1 -1 -1 -0 -1 -0 0
7 7 7 7 8 10 11 9 5 6 5 5 4 3 3 3 3 2 2 2 1 1 1 1 1 1 1 0 -0 -0 -0 -0 0 0 -0 -0 -1 -1 -0 -0 -0 -0 -0 -1 -0 -0 -0 0 -0
5 6 6 9 9 8 9 9 5 4 4 4 4 3 3 3 3 3 3 2 2 1 1 1 1 1 0 -0 -0 0 -0 -0 0 0 -0 -1 -0 -1 -0 -1 -0 -0 -0 -0 -0 0 -0 0 0